Time,TemperatureF,DewpointF,PressureIn,WindDirection,WindDirectionDegrees,WindSpeedMPH,WindSpeedGustMPH,Humidity,HourlyPrecipIn,Conditions,Clouds,dailyrainin,SoftwareType,DateUTC
2013-04-23 00:02:00,61.0,47.0,29.97,SW,215,6.0,-999.0,61,-99.99,,,-99.99,,2013-04-23 05:02:00,
2013-04-23 00:12:00,61.0,47.0,29.97,SW,215,6.0,-999.0,61,-99.99,,,-99.99,,2013-04-23 05:12:00,
2013-04-23 00:22:00,60.0,47.0,29.97,SW,235,1.0,-999.0,63,-99.99,,,-99.99,,2013-04-23 05:22:00,
2013-04-23 00:32:00,59.0,47.0,29.97,SW,235,0.0,-999.0,65,-99.99,,,-99.99,,2013-04-23 05:32:00,
2013-04-23 00:42:00,59.0,47.0,29.97,SW,235,0.0,-999.0,65,-99.99,,,-99.99,,2013-04-23 05:42:00,
2013-04-23 00:52:00,59.0,48.0,29.97,SW,235,0.0,-999.0,67,-99.99,,,-99.99,,2013-04-23 05:52:00,
2013-04-23 01:01:00,59.0,48.0,29.96,South,188,2.0,-999.0,67,-99.99,,,-99.99,,2013-04-23 06:01:00,
2013-04-23 01:12:00,59.0,48.0,29.96,South,188,2.0,-999.0,67,-99.99,,,-99.99,,2013-04-23 06:12:00,
2013-04-23 01:21:00,59.0,48.0,29.96,South,188,2.0,-999.0,67,-99.99,,,-99.99,,2013-04-23 06:21:00,
2013-04-23 01:32:00,59.0,48.0,29.96,South,188,2.0,-999.0,67,-99.99,,,-99.99,,2013-04-23 06:32:00,
2013-04-23 01:42:00,59.0,48.0,29.96,South,188,2.0,-999.0,67,-99.99,,,-99.99,,2013-04-23 06:42:00,
2013-04-23 01:52:00,58.0,47.0,29.93,SE,142,4.0,-999.0,67,-99.99,,,-99.99,,2013-04-23 06:52:00,
2013-04-23 02:02:00,58.0,47.0,29.93,SSE,163,5.0,-999.0,67,-99.99,,,-99.99,,2013-04-23 07:02:00,
2013-04-23 02:11:00,58.0,47.0,29.93,SSE,163,5.0,-999.0,67,-99.99,,,-99.99,,2013-04-23 07:11:00,
2013-04-23 02:21:00,58.0,47.0,29.93,SSE,148,5.0,-999.0,68,-99.99,,,-99.99,,2013-04-23 07:21:00,
2013-04-23 02:32:00,58.0,48.0,29.92,SSE,166,6.0,-999.0,69,-99.99,,,-99.99,,2013-04-23 07:32:00,
2013-04-23 02:42:00,58.0,48.0,29.92,SSE,166,6.0,-999.0,69,-99.99,,,-99.99,,2013-04-23 07:42:00,
2013-04-23 02:52:00,57.0,47.0,29.93,SSE,165,4.0,-999.0,70,-99.99,,,-99.99,,2013-04-23 07:52:00,
2013-04-23 03:02:00,57.0,48.0,29.92,SSE,165,4.0,-999.0,72,-99.99,,,-99.99,,2013-04-23 08:02:00,
2013-04-23 03:11:00,57.0,48.0,29.92,SSE,165,4.0,-999.0,72,-99.99,,,-99.99,,2013-04-23 08:11:00,
2013-04-23 03:21:00,57.0,48.0,29.91,SE,141,5.0,-999.0,71,-99.99,,,-99.99,,2013-04-23 08:21:00,
2013-04-23 03:31:00,57.0,48.0,29.92,SSE,156,4.0,-999.0,73,-99.99,,,-99.99,,2013-04-23 08:31:00,
2013-04-23 03:42:00,57.0,48.0,29.92,SSE,156,4.0,-999.0,73,-99.99,,,-99.99,,2013-04-23 08:42:00,
2013-04-23 03:52:00,56.0,47.0,29.92,South,170,5.0,-999.0,73,-99.99,,,-99.99,,2013-04-23 08:52:00,
2013-04-23 04:01:00,56.0,47.0,29.92,South,170,5.0,-999.0,73,-99.99,,,-99.99,,2013-04-23 09:01:00,
2013-04-23 04:11:00,56.0,47.0,29.92,South,170,5.0,-999.0,73,-99.99,,,-99.99,,2013-04-23 09:11:00,
2013-04-23 04:21:00,56.0,47.0,29.89,SSE,163,5.0,-999.0,73,-99.99,,,-99.99,,2013-04-23 09:21:00,
2013-04-23 04:32:00,56.0,47.0,29.88,SE,145,7.0,-999.0,72,-99.99,,,-99.99,,2013-04-23 09:32:00,
2013-04-23 04:43:00,56.0,47.0,29.88,SE,145,7.0,-999.0,72,-99.99,,,-99.99,,2013-04-23 09:43:00,
2013-04-23 04:53:00,56.0,47.0,29.88,South,176,8.0,-999.0,72,-99.99,,,-99.99,,2013-04-23 09:53:00,
2013-04-23 05:02:00,56.0,47.0,29.88,SSE,161,7.0,-999.0,72,-99.99,,,-99.99,,2013-04-23 10:02:00,
2013-04-23 05:13:00,56.0,47.0,29.88,SSE,161,7.0,-999.0,72,-99.99,,,-99.99,,2013-04-23 10:13:00,
2013-04-23 05:22:00,56.0,47.0,29.88,SSE,158,6.0,-999.0,72,-99.99,,,-99.99,,2013-04-23 10:22:00,
2013-04-23 05:32:00,56.0,47.0,29.88,SSE,166,6.0,-999.0,72,-99.99,,,-99.99,,2013-04-23 10:32:00,
2013-04-23 05:42:00,56.0,47.0,29.88,SSE,166,6.0,-999.0,72,-99.99,,,-99.99,,2013-04-23 10:42:00,
2013-04-23 05:52:00,56.0,47.0,29.88,South,184,7.0,-999.0,72,-99.99,,,-99.99,,2013-04-23 10:52:00,
2013-04-23 06:02:00,56.0,47.0,29.88,South,172,5.0,-999.0,73,-99.99,,,-99.99,,2013-04-23 11:02:00,
2013-04-23 06:12:00,55.0,47.0,29.88,SSE,166,5.0,-999.0,74,-99.99,,,-99.99,,2013-04-23 11:12:00,
2013-04-23 06:21:00,55.0,47.0,29.88,SSE,166,5.0,-999.0,74,-99.99,,,-99.99,,2013-04-23 11:21:00,
2013-04-23 06:32:00,55.0,47.0,29.88,SSE,166,5.0,-999.0,74,-99.99,,,-99.99,,2013-04-23 11:32:00,
2013-04-23 06:42:00,55.0,47.0,29.88,South,185,5.0,-999.0,75,-99.99,,,-99.99,,2013-04-23 11:42:00,
2013-04-23 06:53:00,55.0,47.0,29.88,South,185,5.0,-999.0,75,-99.99,,,-99.99,,2013-04-23 11:53:00,
2013-04-23 07:02:00,55.0,48.0,29.88,South,177,5.0,-999.0,76,-99.99,,,-99.99,,2013-04-23 12:02:00,
2013-04-23 07:12:00,55.0,48.0,29.88,South,177,5.0,-999.0,76,-99.99,,,-99.99,,2013-04-23 12:12:00,
2013-04-23 07:22:00,55.0,48.0,29.87,SSE,161,4.0,-999.0,77,-99.99,,,-99.99,,2013-04-23 12:22:00,
2013-04-23 07:32:00,55.0,48.0,29.87,South,191,6.0,-999.0,77,-99.99,,,-99.99,,2013-04-23 12:32:00,
2013-04-23 07:41:00,55.0,48.0,29.87,South,191,6.0,-999.0,77,-99.99,,,-99.99,,2013-04-23 12:41:00,
2013-04-23 07:52:00,55.0,48.0,29.87,South,170,6.0,-999.0,78,-99.99,,,-99.99,,2013-04-23 12:52:00,
2013-04-23 08:01:00,55.0,48.0,29.88,South,179,5.0,-999.0,77,-99.99,,,-99.99,,2013-04-23 13:01:00,
2013-04-23 08:11:00,55.0,48.0,29.88,South,179,5.0,-999.0,77,-99.99,,,-99.99,,2013-04-23 13:11:00,
2013-04-23 08:21:00,56.0,49.0,29.88,South,190,4.0,-999.0,76,-99.99,,,-99.99,,2013-04-23 13:21:00,
2013-04-23 08:32:00,56.0,48.0,29.89,WSW,239,4.0,-999.0,75,-99.99,,,-99.99,,2013-04-23 13:32:00,
2013-04-23 08:41:00,56.0,48.0,29.89,WSW,239,4.0,-999.0,75,-99.99,,,-99.99,,2013-04-23 13:41:00,
2013-04-23 08:52:00,56.0,49.0,29.89,WSW,240,3.0,-999.0,76,-99.99,,,-99.99,,2013-04-23 13:52:00,
2013-04-23 09:01:00,56.0,48.0,29.90,SW,225,3.0,-999.0,75,-99.99,,,-99.99,,2013-04-23 14:01:00,
2013-04-23 09:11:00,56.0,48.0,29.90,SW,225,3.0,-999.0,75,-99.99,,,-99.99,,2013-04-23 14:11:00,
2013-04-23 09:22:00,56.0,49.0,29.90,SW,225,5.0,-999.0,77,-99.99,,,-99.99,,2013-04-23 14:22:00,
2013-04-23 09:32:00,55.0,50.0,29.92,WSW,255,3.0,-999.0,84,-99.99,,,-99.99,,2013-04-23 14:32:00,
2013-04-23 09:42:00,55.0,50.0,29.92,WSW,255,3.0,-999.0,84,-99.99,,,-99.99,,2013-04-23 14:42:00,
2013-04-23 09:52:00,54.0,50.0,29.92,SW,230,4.0,-999.0,86,-99.99,,,-99.99,,2013-04-23 14:52:00,
2013-04-23 10:01:00,54.0,50.0,29.92,SW,230,4.0,-999.0,86,-99.99,,,-99.99,,2013-04-23 15:01:00,
2013-04-23 10:12:00,54.0,51.0,29.92,SW,230,4.0,-999.0,88,-99.99,,,-99.99,,2013-04-23 15:12:00,
2013-04-23 10:21:00,54.0,51.0,29.92,SW,230,4.0,-999.0,90,-99.99,,,-99.99,,2013-04-23 15:21:00,
2013-04-23 10:32:00,54.0,51.0,29.92,SW,230,4.0,-999.0,90,-99.99,,,-99.99,,2013-04-23 15:32:00,
2013-04-23 10:42:00,54.0,51.0,29.92,SW,230,4.0,-999.0,90,-99.99,,,-99.99,,2013-04-23 15:42:00,
2013-04-23 10:53:00,54.0,51.0,29.92,SW,225,3.0,-999.0,91,-99.99,,,-99.99,,2013-04-23 15:53:00,
2013-04-23 11:02:00,54.0,52.0,29.91,SW,215,3.0,-999.0,92,-99.99,,,-99.99,,2013-04-23 16:02:00,
2013-04-23 11:12:00,54.0,52.0,29.91,SW,215,3.0,-999.0,92,-99.99,,,-99.99,,2013-04-23 16:12:00,
2013-04-23 11:23:00,54.0,52.0,29.90,South,188,2.0,-999.0,92,-99.99,,,-99.99,,2013-04-23 16:23:00,
2013-04-23 11:34:00,54.0,52.0,29.89,SW,235,2.0,-999.0,92,-99.99,,,-99.99,,2013-04-23 16:34:00,
2013-04-23 11:42:00,54.0,52.0,29.89,SW,235,2.0,-999.0,92,-99.99,,,-99.99,,2013-04-23 16:42:00,
2013-04-23 11:53:00,54.0,52.0,29.88,WSW,241,1.0,-999.0,92,-99.99,,,-99.99,,2013-04-23 16:53:00,
2013-04-23 12:02:00,54.0,52.0,29.88,WSW,241,1.0,-999.0,92,-99.99,,,-99.99,,2013-04-23 17:02:00,
2013-04-23 12:11:00,54.0,52.0,29.88,WSW,241,1.0,-999.0,92,-99.99,,,-99.99,,2013-04-23 17:11:00,
2013-04-23 12:22:00,55.0,52.0,29.88,SSW,207,1.0,-999.0,91,-99.99,,,-99.99,,2013-04-23 17:22:00,
2013-04-23 12:32:00,55.0,52.0,29.87,South,179,3.0,-999.0,90,-99.99,,,-99.99,,2013-04-23 17:32:00,
2013-04-23 12:42:00,55.0,52.0,29.87,South,179,3.0,-999.0,90,-99.99,,,-99.99,,2013-04-23 17:42:00,
2013-04-23 12:53:00,55.0,52.0,29.87,SW,225,3.0,-999.0,91,-99.99,,,-99.99,,2013-04-23 17:53:00,
2013-04-23 13:02:00,55.0,53.0,29.85,SW,230,1.0,-999.0,92,-99.99,,,-99.99,,2013-04-23 18:02:00,
2013-04-23 13:12:00,55.0,53.0,29.85,SW,230,1.0,-999.0,92,-99.99,,,-99.99,,2013-04-23 18:12:00,
2013-04-23 13:22:00,54.0,51.0,29.85,NW,314,6.0,-999.0,90,-99.99,,,-99.99,,2013-04-23 18:22:00,
2013-04-23 13:32:00,50.0,47.0,29.85,NNE,12,14.0,-999.0,90,-99.99,,,-99.99,,2013-04-23 18:32:00,
2013-04-23 13:42:00,50.0,47.0,29.85,NNE,12,14.0,-999.0,90,-99.99,,,-99.99,,2013-04-23 18:42:00,
2013-04-23 13:52:00,48.0,46.0,29.83,North,360,12.0,-999.0,92,-99.99,,,-99.99,,2013-04-23 18:52:00,
2013-04-23 14:02:00,47.0,45.0,29.83,North,7,10.0,-999.0,92,-99.99,,,-99.99,,2013-04-23 19:02:00,
2013-04-23 14:11:00,47.0,45.0,29.83,North,7,10.0,-999.0,92,-99.99,,,-99.99,,2013-04-23 19:11:00,
2013-04-23 14:21:00,47.0,45.0,29.83,NNE,25,9.0,-999.0,92,-99.99,,,-99.99,,2013-04-23 19:21:00,
2013-04-23 14:32:00,47.0,45.0,29.83,NNE,20,5.0,-999.0,91,-99.99,,,-99.99,,2013-04-23 19:32:00,
2013-04-23 14:42:00,47.0,45.0,29.83,NNE,20,5.0,-999.0,91,-99.99,,,-99.99,,2013-04-23 19:42:00,
2013-04-23 14:52:00,48.0,45.0,29.83,NNE,17,6.0,-999.0,91,-99.99,,,-99.99,,2013-04-23 19:52:00,
2013-04-23 15:01:00,48.0,45.0,29.83,North,355,8.0,-999.0,90,-99.99,,,-99.99,,2013-04-23 20:01:00,
2013-04-23 15:11:00,48.0,45.0,29.83,North,355,8.0,-999.0,90,-99.99,,,-99.99,,2013-04-23 20:11:00,
2013-04-23 15:22:00,47.0,44.0,29.83,North,8,9.0,-999.0,90,-99.99,,,-99.99,,2013-04-23 20:22:00,
2013-04-23 15:31:00,46.0,43.0,29.83,North,351,8.0,-999.0,89,-99.99,,,-99.99,,2013-04-23 20:31:00,
2013-04-23 15:42:00,46.0,43.0,29.83,North,351,8.0,-999.0,89,-99.99,,,-99.99,,2013-04-23 20:42:00,
2013-04-23 15:52:00,45.0,42.0,29.83,North,6,9.0,-999.0,90,-99.99,,,-99.99,,2013-04-23 20:52:00,
2013-04-23 16:01:00,45.0,43.0,29.83,NNW,333,9.0,-999.0,92,-99.99,,,-99.99,,2013-04-23 21:01:00,
2013-04-23 16:12:00,45.0,43.0,29.83,NNW,333,9.0,-999.0,92,-99.99,,,-99.99,,2013-04-23 21:12:00,
2013-04-23 16:21:00,44.0,42.0,29.83,NW,322,8.0,-999.0,92,-99.99,,,-99.99,,2013-04-23 21:21:00,
2013-04-23 16:33:00,43.0,41.0,29.84,NW,316,11.0,-999.0,92,-99.99,,,-99.99,,2013-04-23 21:33:00,
2013-04-23 16:43:00,43.0,41.0,29.84,NW,316,11.0,-999.0,92,-99.99,,,-99.99,,2013-04-23 21:43:00,
2013-04-23 16:52:00,43.0,41.0,29.82,NNW,340,12.0,-999.0,93,-99.99,,,-99.99,,2013-04-23 21:52:00,
2013-04-23 17:03:00,43.0,41.0,29.84,NW,310,14.0,-999.0,93,-99.99,,,-99.99,,2013-04-23 22:03:00,
2013-04-23 17:12:00,43.0,41.0,29.84,NW,310,14.0,-999.0,93,-99.99,,,-99.99,,2013-04-23 22:12:00,
2013-04-23 17:22:00,42.0,40.0,29.85,NNW,333,17.0,-999.0,93,-99.99,,,-99.99,,2013-04-23 22:22:00,
2013-04-23 17:33:00,42.0,40.0,29.84,NNW,329,13.0,-999.0,93,-99.99,,,-99.99,,2013-04-23 22:33:00,
2013-04-23 17:42:00,42.0,40.0,29.84,NNW,329,13.0,-999.0,93,-99.99,,,-99.99,,2013-04-23 22:42:00,
2013-04-23 17:52:00,42.0,40.0,29.84,NNW,332,11.0,-999.0,93,-99.99,,,-99.99,,2013-04-23 22:52:00,
2013-04-23 18:02:00,41.0,39.0,29.84,NNW,344,13.0,-999.0,93,-99.99,,,-99.99,,2013-04-23 23:02:00,
2013-04-23 18:12:00,41.0,39.0,29.84,NNW,344,13.0,-999.0,93,-99.99,,,-99.99,,2013-04-23 23:12:00,
2013-04-23 18:22:00,41.0,39.0,29.84,NNW,340,14.0,-999.0,93,-99.99,,,-99.99,,2013-04-23 23:22:00,
2013-04-23 18:32:00,41.0,39.0,29.85,NNW,348,11.0,-999.0,93,-99.99,,,-99.99,,2013-04-23 23:32:00,
2013-04-23 18:42:00,41.0,39.0,29.84,North,351,14.0,-999.0,92,-99.99,,,-99.99,,2013-04-23 23:42:00,
2013-04-23 18:52:00,41.0,39.0,29.84,North,351,14.0,-999.0,92,-99.99,,,-99.99,,2013-04-23 23:52:00,
2013-04-23 19:01:00,41.0,39.0,29.83,NNE,26,15.0,-999.0,92,-99.99,,,-99.99,,2013-04-24 00:01:00,
2013-04-23 19:11:00,41.0,39.0,29.83,NNE,26,15.0,-999.0,92,-99.99,,,-99.99,,2013-04-24 00:11:00,
2013-04-23 19:21:00,41.0,39.0,29.84,NNW,345,13.0,-999.0,92,-99.99,,,-99.99,,2013-04-24 00:21:00,
2013-04-23 19:32:00,41.0,39.0,29.85,NW,324,12.0,-999.0,92,-99.99,,,-99.99,,2013-04-24 00:32:00,
2013-04-23 19:41:00,41.0,39.0,29.85,NW,324,12.0,-999.0,92,-99.99,,,-99.99,,2013-04-24 00:41:00,
2013-04-23 19:52:00,41.0,39.0,29.86,North,6,9.0,-999.0,92,-99.99,,,-99.99,,2013-04-24 00:52:00,
2013-04-23 20:01:00,40.0,38.0,29.86,NNW,339,11.0,-999.0,92,-99.99,,,-99.99,,2013-04-24 01:01:00,
2013-04-23 20:11:00,40.0,38.0,29.86,NNW,339,11.0,-999.0,92,-99.99,,,-99.99,,2013-04-24 01:11:00,
2013-04-23 20:21:00,40.0,38.0,29.86,NNW,335,11.0,-999.0,92,-99.99,,,-99.99,,2013-04-24 01:21:00,
2013-04-23 20:32:00,40.0,38.0,29.86,North,3,11.0,-999.0,92,-99.99,,,-99.99,,2013-04-24 01:32:00,
2013-04-23 20:42:00,40.0,38.0,29.86,North,3,11.0,-999.0,92,-99.99,,,-99.99,,2013-04-24 01:42:00,
2013-04-23 20:52:00,40.0,38.0,29.87,NNW,339,11.0,-999.0,91,-99.99,,,-99.99,,2013-04-24 01:52:00,
2013-04-23 21:02:00,40.0,38.0,29.87,NNW,346,12.0,-999.0,91,-99.99,,,-99.99,,2013-04-24 02:02:00,
2013-04-23 21:28:00,40.0,38.0,29.88,North,354,13.0,-999.0,91,-99.99,,,-99.99,,2013-04-24 02:28:00,
2013-04-23 21:37:00,40.0,38.0,29.89,NW,316,12.0,-999.0,91,-99.99,,,-99.99,,2013-04-24 02:37:00,
2013-04-23 21:46:00,40.0,38.0,29.89,NW,316,12.0,-999.0,91,-99.99,,,-99.99,,2013-04-24 02:46:00,
2013-04-23 21:59:00,40.0,37.0,29.91,NW,326,11.0,-999.0,90,-99.99,,,-99.99,,2013-04-24 02:59:00,
2013-04-23 22:07:00,40.0,37.0,29.91,North,349,11.0,-999.0,90,-99.99,,,-99.99,,2013-04-24 03:07:00,
2013-04-23 22:15:00,40.0,37.0,29.91,North,349,11.0,-999.0,90,-99.99,,,-99.99,,2013-04-24 03:15:00,
2013-04-23 22:27:00,39.0,36.0,29.91,North,349,9.0,-999.0,90,-99.99,,,-99.99,,2013-04-24 03:27:00,
2013-04-23 22:38:00,39.0,36.0,29.91,North,11,11.0,-999.0,89,-99.99,,,-99.99,,2013-04-24 03:38:00,
2013-04-23 22:48:00,39.0,36.0,29.91,North,11,11.0,-999.0,89,-99.99,,,-99.99,,2013-04-24 03:48:00,
2013-04-23 22:55:00,39.0,36.0,29.92,NW,325,10.0,-999.0,89,-99.99,,,-99.99,,2013-04-24 03:55:00,
2013-04-23 23:03:00,39.0,36.0,29.93,NNW,342,12.0,-999.0,89,-99.99,,,-99.99,,2013-04-24 04:03:00,
2013-04-23 23:12:00,39.0,36.0,29.93,NNW,342,12.0,-999.0,89,-99.99,,,-99.99,,2013-04-24 04:12:00,
2013-04-23 23:23:00,39.0,36.0,29.93,NNW,343,11.0,-999.0,90,-99.99,,,-99.99,,2013-04-24 04:23:00,
2013-04-23 23:33:00,39.0,36.0,29.93,North,359,10.0,-999.0,90,-99.99,,,-99.99,,2013-04-24 04:33:00,
2013-04-23 23:43:00,39.0,36.0,29.93,North,359,10.0,-999.0,90,-99.99,,,-99.99,,2013-04-24 04:43:00,
2013-04-23 23:52:00,39.0,36.0,29.92,North,358,10.0,-999.0,90,-99.99,,,-99.99,,2013-04-24 04:52:00,